| time (UTC) | temp F | wind direction | speed knots | gust knots | rain 1hr in | rain 24hr in | rain mn in | humidity % | barometer mb |
| 20260509200004 | 66 | 235 | 0.9 | 2.6 | 0.00 | 0.00 | 0.00 | 96 | 1011.0 |
| 20260509194504 | 66 | 235 | 0.9 | 2.6 | 0.00 | 0.00 | 0.00 | 96 | 1011.0 |
| 20260509193003 | 66 | 235 | 0.9 | 2.6 | 0.00 | 0.00 | 0.00 | 96 | 1011.0 |
| 20260509191503 | 66 | 245 | 0.9 | 2.6 | 0.01 | 0.00 | 0.00 | 95 | 1011.0 |
| 20260509190004 | 67 | 245 | 0.9 | 2.6 | 0.00 | 0.00 | 0.00 | 96 | 1011.0 |
| 20260509184503 | 67 | 245 | 0.9 | 2.6 | 0.00 | 0.00 | 0.00 | 96 | 1012.0 |
| 20260509183004 | 67 | 245 | 0.9 | 2.6 | 0.00 | 0.00 | 0.00 | 96 | 1012.0 |
| 20260509181504 | 67 | 237 | 0.9 | 2.6 | 0.00 | 0.00 | 0.00 | 96 | 1012.0 |
| 20260509180004 | 67 | 237 | 0.9 | 2.6 | 0.00 | 0.00 | 0.00 | 96 | 1012.0 |
| 20260509174504 | 67 | 237 | 0.9 | 2.6 | 0.00 | 0.00 | 0.00 | 96 | 1012.0 |
| 20260509173004 | 67 | 217 | 0.9 | 2.6 | 0.00 | 0.00 | 0.00 | 96 | 1012.0 |
| 20260509171503 | 67 | 189 | 0.9 | 2.6 | 0.00 | 0.00 | 0.00 | 95 | 1012.0 |
| 20260509170003 | 67 | 189 | 0.9 | 2.6 | 0.00 | 0.00 | 0.00 | 96 | 1012.0 |
| 20260509164504 | 67 | 189 | 0.9 | 2.6 | 0.00 | 0.00 | 0.00 | 96 | 1012.0 |
| 20260509163003 | 67 | 189 | 0.9 | 2.6 | 0.00 | 0.00 | 0.00 | 96 | 1013.0 |
| 20260509161503 | 68 | 146 | 0.0 | 1.7 | 0.00 | 0.00 | 0.00 | 95 | 1012.0 |
| 20260509160004 | 67 | 146 | 0.0 | 1.7 | 0.00 | 0.00 | 0.00 | 96 | 1013.0 |
| 20260509154504 | 67 | 146 | 0.0 | 1.7 | 0.00 | 0.00 | 0.00 | 96 | 1013.0 |
| 20260509153004 | 67 | 146 | 0.0 | 1.7 | 0.00 | 0.00 | 0.00 | 96 | 1013.0 |
| 20260509151503 | 67 | 120 | 0.9 | 1.7 | 0.00 | 0.00 | 0.00 | 95 | 1013.0 |
| 20260509150004 | 68 | 120 | 0.9 | 1.7 | 0.00 | 0.00 | 0.00 | 96 | 1013.0 |
| 20260509144503 | 68 | 120 | 0.9 | 1.7 | 0.00 | 0.00 | 0.00 | 95 | 1013.0 |
| 20260509143003 | 68 | 120 | 0.9 | 1.7 | 0.00 | 0.00 | 0.00 | 95 | 1013.0 |
| 20260509141503 | 68 | 123 | 0.9 | 1.7 | 0.00 | 0.00 | 0.00 | 94 | 1012.0 |
| 20260509140004 | 69 | 123 | 0.9 | 1.7 | 0.00 | 0.00 | 0.00 | 95 | 1013.0 |
| 20260509134504 | 69 | 123 | 0.9 | 1.7 | 0.00 | 0.00 | 0.00 | 95 | 1013.0 |
| 20260509133004 | 69 | 123 | 0.9 | 1.7 | 0.00 | 0.00 | 0.00 | 95 | 1013.0 |
| 20260509131503 | 69 | 143 | 0.9 | 2.6 | 0.00 | 0.00 | 0.00 | 93 | 1012.0 |
| 20260509130003 | 69 | 143 | 0.9 | 2.6 | 0.00 | 0.00 | 0.00 | 95 | 1012.0 |
| 20260509124504 | 70 | 143 | 0.9 | 2.6 | 0.00 | 0.00 | 0.00 | 95 | 1012.0 |
| 20260509123016 | 69 | 143 | 0.9 | 2.6 | 0.00 | 0.00 | 0.00 | 95 | 1012.0 |
| 20260509121514 | 69 | 217 | 0.9 | 2.6 | 0.00 | 0.00 | 0.00 | 93 | 1011.0 |
| 20260509120021 | 70 | 217 | 0.9 | 2.6 | 0.00 | 0.00 | 0.00 | 93 | 1012.0 |
| 20260509114514 | 70 | 217 | 0.9 | 2.6 | 0.00 | 0.00 | 0.00 | 93 | 1012.0 |
| 20260509113021 | 70 | 189 | 0.9 | 1.7 | 0.00 | 0.00 | 0.00 | 94 | 1012.0 |
| 20260509111514 | 71 | 261 | 0.9 | 1.7 | 0.00 | 0.00 | 0.00 | 92 | 1011.0 |
| 20260509110029 | 57 | 209 | 2.6 | 3.5 | 0.00 | 0.00 | 0.00 | 85 | 1011.0 |
| 20260509104515 | 59 | 209 | 2.6 | 3.5 | 0.00 | 0.00 | 0.00 | 85 | 1011.0 |
| 20260509103019 | 61 | 209 | 2.6 | 3.5 | 0.00 | 0.00 | 0.00 | 85 | 1011.0 |
| 20260509101516 | 63 | 209 | 2.6 | 3.5 | 0.00 | 0.00 | 0.00 | 85 | 1010.0 |
| 20260509100031 | 65 | 209 | 2.6 | 3.5 | 0.00 | 0.00 | 0.00 | 85 | 1010.0 |
| 20260509094517 | 67 | 209 | 2.6 | 3.5 | 0.00 | 0.00 | 0.00 | 85 | 1010.0 |
| 20260509093021 | 69 | 209 | 2.6 | 3.5 | 0.00 | 0.00 | 0.00 | 85 | 1010.0 |
| 20260509091515 | 71 | 209 | 2.6 | 3.5 | 0.00 | 0.00 | 0.00 | 85 | 1009.0 |
| 20260509090024 | 60 | 219 | 2.6 | 3.5 | 0.00 | 0.00 | 0.00 | 79 | 1010.0 |
| 20260509084517 | 62 | 219 | 2.6 | 3.5 | 0.00 | 0.00 | 0.00 | 79 | 1010.0 |
| 20260509083021 | 64 | 219 | 2.6 | 3.5 | 0.00 | 0.00 | 0.00 | 79 | 1010.0 |
| 20260509081518 | 66 | 219 | 2.6 | 3.5 | 0.00 | 0.00 | 0.00 | 79 | 1009.0 |
| 20260509080021 | 68 | 219 | 2.6 | 3.5 | 0.00 | 0.00 | 0.00 | 79 | 1009.0 |
| 20260509074518 | 70 | 219 | 2.6 | 3.5 | 0.00 | 0.00 | 0.00 | 79 | 1009.0 |
| 20260509073021 | 63 | 224 | 2.6 | 3.5 | 0.00 | 0.00 | 0.00 | 83 | 1009.0 |
| 20260509071517 | 65 | 224 | 2.6 | 3.5 | 0.00 | 0.00 | 0.00 | 83 | 1009.0 |
| 20260509070018 | 67 | 224 | 2.6 | 3.5 | 0.00 | 0.00 | 0.00 | 83 | 1009.0 |
| 20260509064518 | 69 | 224 | 2.6 | 3.5 | 0.00 | 0.00 | 0.00 | 83 | 1009.0 |
| 20260509063022 | 71 | 224 | 2.6 | 3.5 | 0.00 | 0.00 | 0.00 | 83 | 1009.0 |
| 20260509061519 | 73 | 224 | 2.6 | 3.5 | 0.00 | 0.00 | 0.00 | 83 | 1009.0 |
| 20260509060020 | 65 | 210 | 1.7 | 2.6 | 0.00 | 0.00 | 0.00 | 78 | 1010.0 |
| 20260509054519 | 67 | 210 | 1.7 | 2.6 | 0.00 | 0.00 | 0.00 | 78 | 1010.0 |
| 20260509053024 | 69 | 210 | 1.7 | 2.6 | 0.00 | 0.00 | 0.00 | 78 | 1010.0 |
| 20260509051516 | 71 | 210 | 1.7 | 2.6 | 0.00 | 0.00 | 0.00 | 78 | 1010.0 |
| 20260509050019 | 73 | 210 | 1.7 | 2.6 | 0.00 | 0.00 | 0.00 | 78 | 1010.0 |
| 20260509044514 | 65 | 191 | 2.6 | 2.6 | 0.00 | 0.00 | 0.00 | 79 | 1010.0 |
| 20260509043017 | 67 | 191 | 2.6 | 2.6 | 0.00 | 0.00 | 0.00 | 79 | 1010.0 |
| 20260509041515 | 69 | 191 | 2.6 | 2.6 | 0.00 | 0.00 | 0.00 | 79 | 1011.0 |
| 20260509040023 | 71 | 191 | 2.6 | 2.6 | 0.00 | 0.00 | 0.00 | 79 | 1011.0 |
| 20260509034513 | 73 | 191 | 2.6 | 2.6 | 0.00 | 0.00 | 0.00 | 79 | 1011.0 |
| 20260509033016 | 66 | 180 | 2.6 | 2.6 | 0.00 | 0.00 | 0.00 | 81 | 1011.0 |
| 20260509031514 | 68 | 180 | 2.6 | 2.6 | 0.00 | 0.00 | 0.00 | 81 | 1012.0 |
| 20260509030021 | 70 | 180 | 2.6 | 2.6 | 0.00 | 0.00 | 0.00 | 81 | 1012.0 |
| 20260509024513 | 72 | 180 | 2.6 | 2.6 | 0.00 | 0.00 | 0.00 | 81 | 1012.0 |
| 20260509023015 | 65 | 171 | 1.7 | 1.7 | 0.00 | 0.00 | 0.00 | 85 | 1012.0 |
| 20260509021512 | 67 | 171 | 1.7 | 1.7 | 0.00 | 0.00 | 0.00 | 85 | 1012.0 |
| 20260509020017 | 69 | 171 | 1.7 | 1.7 | 0.00 | 0.00 | 0.00 | 85 | 1012.0 |
| 20260509014513 | 71 | 171 | 1.7 | 1.7 | 0.00 | 0.00 | 0.00 | 85 | 1012.0 |
| 20260509013014 | 63 | 128 | 0.9 | 1.7 | 0.00 | 0.00 | 0.00 | 89 | 1012.0 |
| 20260509011512 | 65 | 128 | 0.9 | 1.7 | 0.00 | 0.00 | 0.00 | 89 | 1012.0 |
| 20260509010016 | 67 | 128 | 0.9 | 1.7 | 0.00 | 0.00 | 0.00 | 89 | 1013.0 |
| 20260509004512 | 69 | 128 | 0.9 | 1.7 | 0.00 | 0.00 | 0.00 | 89 | 1012.0 |
| 20260509003013 | 61 | 128 | 0.9 | 1.7 | 0.00 | 0.00 | 0.00 | 93 | 1012.0 |
| 20260509001512 | 63 | 81 | 0.0 | 1.7 | 0.00 | 0.00 | 0.00 | 93 | 1012.0 |
| 20260509000016 | 65 | 81 | 0.0 | 1.7 | 0.00 | 0.00 | 0.00 | 93 | 1012.0 |
| 20260508234512 | 67 | 81 | 0.0 | 1.7 | 0.00 | 0.00 | 0.00 | 93 | 1012.0 |
| 20260508233012 | 54 | 353 | 0.9 | 1.7 | 0.00 | 0.00 | 0.00 | 95 | 1012.0 |
| 20260508231507 | 56 | 353 | 0.9 | 1.7 | 0.00 | 0.00 | 0.00 | 95 | 1011.0 |
| 20260508230007 | 58 | 353 | 0.9 | 1.7 | 0.00 | 0.00 | 0.00 | 95 | 1011.0 |
| 20260508224507 | 60 | 353 | 0.9 | 1.7 | 0.00 | 0.00 | 0.00 | 95 | 1011.0 |
| 20260508223008 | 62 | 353 | 0.9 | 1.7 | 0.00 | 0.00 | 0.00 | 95 | 1011.0 |
| 20260508221507 | 64 | 353 | 0.9 | 1.7 | 0.00 | 0.00 | 0.00 | 95 | 1011.0 |
| 20260508220008 | 66 | 353 | 0.9 | 1.7 | 0.00 | 0.00 | 0.00 | 95 | 1011.0 |
| 20260508214508 | 54 | 338 | 0.9 | 1.7 | 0.00 | 0.00 | 0.00 | 94 | 1011.0 |
| 20260508213008 | 56 | 338 | 0.9 | 1.7 | 0.00 | 0.00 | 0.00 | 94 | 1011.0 |
| 20260508211508 | 58 | 338 | 0.9 | 1.7 | 0.00 | 0.00 | 0.00 | 94 | 1010.0 |
| 20260508210011 | 60 | 338 | 0.9 | 1.7 | 0.00 | 0.00 | 0.00 | 94 | 1011.0 |
| 20260508204509 | 62 | 338 | 0.9 | 1.7 | 0.00 | 0.00 | 0.00 | 94 | 1011.0 |
| 20260508203009 | 64 | 338 | 0.9 | 1.7 | 0.00 | 0.00 | 0.00 | 94 | 1011.0 |
| 20260508201508 | 66 | 338 | 0.9 | 1.7 | 0.00 | 0.00 | 0.00 | 94 | 1010.0 |